Location: Newark
(47.5008°N, 9.7480°E)
Time: 12:53:24
(UTC+00:00)

Tiangong 2 - Visible Passes

Search period start: 18 July 2019 00:00
Search period end: 28 July 2019 00:00
Orbit: 378 x 386 km, 42.8° (Epoch: 18 July)

Date Brightness Start Highest point End Pass type
(mag) Time Alt. Az. Time Alt. Az. Time Alt. Az.
18 Jul 2.5 20:14:40 10° WSW 20:17:15 23° SSW 20:19:09 14° SSE visible
19 Jul 3.3 20:51:44 10° SW 20:53:09 12° SSW 20:53:28 12° SSW visible
20 Jul 3.0 19:50:49 10° WSW 19:53:03 18° SSW 19:55:16 10° SSE visible
